Weather in Loparevo

Russia / Kostroma Oblast     58°20′06″N   42°39′53″E
temp.,
°C
wind,
m/s
gust,
m/s
humid.,
%
clouds,
%
prec.,
mm/h
press.,
hPa
HPBL,
m
20 april, tue
tue2000:00−1e312804 0.0 1032350
03:00−2e311815 0.0 1032278
06:00−2e3117747 0.0 1031299
09:00+4ese594511 0.0 1030728
12:00+8ese57413 0.0 10291394
15:00+9ese58391 0.0 10271543
18:00+7ese495474 0.0 1025995
21:00+3e413687 0.0 1024475
21 april, wed
wed2100:00+2e51567100 0.0 1022566
03:00+2e61663100 0.0 1019647
06:00+1ese71771100 0.8 1015962
09:00+1ese71796100 4.0 1013786
12:00+2ese71592100 0.8 1011836
15:00+2se71697100 1.1 1009949
18:00+3se71695100 0.4 1008958
21:00+4sse61196100 1.0 10091026
22 april, thu
thu2200:00+3s41092100 0.1 1010610
03:00+3s41095100 0.2 1011764
06:00+3s41098100 0.2 1012788
09:00+3s51197100 0.3 1014802
12:00+5ssw5991100 0.1 1015840
15:00+7ssw4878100 0.3 1016975
18:00+7ssw488483 0.1 1017583
21:00+3sse2109573 0.1 1018233
23 april, fri
fri2300:00+2s39945 0.0 1019198
03:00+2sse27953 0.0 1019130
06:00+3sse39945 0.0 1019212
09:00+9sse487897 0.0 1019503
12:00+12sse576873 0.0 10181111
15:00+13sse466782 0.0 10181240
18:00+12se49755 0.0 1017586
21:00+8se4129274 0.0 1017328
24 april, sat
sat2400:00+8se299498 0.1 1016230
03:00+6se399626 0.1 1016178
06:00+7se41193100 0.0 1014387
09:00+9ese498718 0.2 1013367
12:00+14se576246 0.1 10111400
15:00+15se575567 1.1 10091712
18:00+12se5107191 1.3 1008786
21:00+9ese51488100 2.1 1006694